Tracking 17154 objects as of 2-August-2015
HD Live streaming from Space Station

SCOUT X-4 DEB

Track SCOUT X-4 DEB now!
10-day predictions
SCOUT X-4 DEB is classified as:


NORAD ID: 2088
Int'l Code: 1965-093D
Perigee: 665.4 km
Apogee: 777.9 km
Inclination: 59.7 °
Period: 99.1 minutes
Semi major axis: 7092 km
RCS: 0.0298 m2 (small)
Launch date: November 19, 1965
Source: United States (US)

Note: This is SATELLITE DEBRIS
Your satellite tracking list
Your tracking list is empty





NASA's NSSDC Master Catalog

Two Line Element Set (TLE):
1 02088U 65093D   15212.52399697  .00000165  00000-0  75445-4 0  9993
2 02088 059.7215 328.1529 0079291 316.1163 043.3599 14.53413614596148

Source of the keplerian elements: AFSPC

N2YO: 256